map of ZAM home
ZAM - Airport
Location
City:  Zamboanga, Philippines
Name:Zamboanga International Airport
ICAO:RPMZ
IATA:ZAM

Details
Type:Airport (Aerodrome, Airfield)
Use:Public/Civil, International (customs port of entry)
Latitude:6°55'21"N (6.922419)
Longitude:122°03'35"E (122.059633)
Datum:WGS 1984
Elevation:33 ft (10 m)
Variation:0.90°W (WMM2015 magnetic declination)
-0.10° annual change
Runways:1
Longest:8560 × 144 ft (2609 × 44 m), paved

Time
Time Zone:UTC+8
Local Time:

Weather
METAR:RPMZ 210900Z 00000KT 9999 FEW017 BKN090 30/24 Q1006 RMK A2971
TAF:RPMZ 210500Z 2106/2206 27005KT 9999 FEW017 SCT090 BKN300
TEMPO 2106/2112 25010KT -SHRA FEW016CB FEW017 BKN090

Related Locations
Nearby:
Farthest:SITA: 12388 mi / 19937 km
Jacareacanga [Nossa Senhora da Conceição], PA, BR

Find:

   beyond  
but within

Other Information
Maps:
NOTAMs:
Links:
Sources:

  
  • flag of Philippines
  

Sectional Chart

Flight Planning
at skyvector.com

Satellite Image

Google Maps Satellite view

 

Copyright © 2004-2019 Karl L. Swartz. All rights reserved.
The Great Circle Mapper name and logo are trademarks of the Great Circle Mapper.
All other trademarks mentioned herein belong to their respective owners.
Please see credits for attibutions and further copyright information.

  Follow gcmap on Facebook Follow gcmap on Twitter Follow gcmap on Google+ GCmap on LinkedIn

hCard Microformat

Geo Microformat